[Iaude] MPEC V49: 2023 VE1 [a=1.14,e=0.17,i=0.9,H=30.1]
    mpec at marsden.cfa.harvard.edu 
    mpec at marsden.cfa.harvard.edu
       
    Sun Nov  5 11:05:56 EST 2023
    
    
  
M.P.E.C. 2023-V49                              Issued 2023 November 5, 16:04 UT
     The Minor Planet Electronic Circulars contain information on unusual
         minor planets, routine data on comets and natural satellites,
         and occasional editorial announcements.  They are published
    on behalf of Division F of the International Astronomical Union by the
          Minor Planet Center, Smithsonian Astrophysical Observatory,
                          Cambridge, MA 02138, U.S.A.
			  
             Prepared using the Tamkin Foundation Computer Network
                              MPC at CFA.HARVARD.EDU
            URL https://www.minorplanetcenter.net/    ISSN 1523-6714
                                    2023 VE1                                    
Observations:
     K23V01E*1C2023 11 04.44818205 07 09.050+01 42 23.40               VEV049703
     K23V01E 1C2023 11 04.45316005 07 19.520+01 34 55.10         17.21GVEV049703
     K23V01E 1C2023 11 04.45813905 07 29.710+01 27 43.80         17.04GVEV049703
     K23V01E mC2023 11 04.48651305 08 27.316+00 49 10.70         17.01GVEV049I52
     K23V01E mC2023 11 04.48663605 08 27.568+00 49 01.34         16.98GVEV049I52
     K23V01E mC2023 11 04.48676105 08 27.812+00 48 51.98         16.96GVEV049I52
     K23V01E mC2023 11 04.48688405 08 28.057+00 48 42.48         17.05GVEV049I52
     K23V01E mC2023 11 04.50416405 09 02.387+00 27 25.74         17.10GVEV049I52
     K23V01E mC2023 11 04.50428805 09 02.639+00 27 16.88         17.13GVEV049I52
     K23V01E mC2023 11 04.50441105 09 02.876+00 27 08.35         16.98GVEV049I52
     K23V01E mC2023 11 04.50453405 09 03.128+00 26 59.53         17.17GVEV049I52
     K23V01E KC2023 11 04.50491 05 09 06.90 +00 27 19.4          16.7 RVEV049291
     K23V01E KC2023 11 04.50694 05 09 10.88 +00 24 55.1          16.8 RVEV049291
     K23V01E KC2023 11 04.50896 05 09 14.82 +00 22 33.5          16.8 RVEV049291
     K23V01E KC2023 11 04.52189 05 09 40.15 +00 07 50.6          16.7 RVEV049691
     K23V01E KC2023 11 04.52280 05 09 41.96 +00 06 50.1          16.8 RVEV049691
     K23V01E KC2023 11 04.52371 05 09 43.75 +00 05 50.2          16.6 RVEV049691
     K23V01E KC2023 11 04.63486205 20 50.82 -01 39 06.0          17.5 GVEV049900
     K23V01E KC2023 11 04.64245805 20 54.09 -01 44 46.9          18.4 GVEV049900
     K23V01E KC2023 11 04.93391 05 27 24.27 -04 21 06.4          18.8 VqEV049L04
     K23V01E KC2023 11 04.93710 05 27 24.73 -04 22 14.1                qEV049L04
     K23V01E KC2023 11 05.32674705 30 51.94 -05 54 00.7          19.4 GVEV049H21
     K23V01E KC2023 11 05.32960905 30 51.09 -05 54 31.4          19.7 GVEV049H21
     K23V01E KC2023 11 05.33247105 30 50.25 -05 55 02.1          19.4 GVEV049H21
     K23V01E KC2023 11 05.33391905 31 32.43 -05 52 40.0          19.3 GXEV049858
     K23V01E KC2023 11 05.33533405 30 49.36 -05 55 32.4          19.9 GVEV049H21
     K23V01E KC2023 11 05.34029705 31 30.45 -05 53 50.6          19.3 GXEV049858
     K23V01E KC2023 11 05.34392105 30 46.81 -05 57 02.7          19.9 GVEV049H21
     K23V01E KC2023 11 05.34752205 31 28.14 -05 55 09.6          19.4 GXEV049858
Observer details:
291 LPL/Spacewatch II.  Observer M. T. Read.  1.8-m f/2.7 reflector + CCD.
691 Steward Observatory, Kitt Peak-Spacewatch.  Observer M. T. Read.  0.9-m
    f/3 reflector + CCD.
703 Catalina Sky Survey.  Observer J. K. Hogan.  Measurers E. C. Beshore, D.
    Fay, J. B. Fazekas, D. C. Fuls, A. R. Gibbs, A. D. Grauer, H. Groeller, J.
    K. Hogan, R. A. Kowalski, S. M. Larson, G. J. Leonard, D. Rankin, R. L.
    Seaman, F. C. Shelly, K. W. Wierzchos.  0.68-m Schmidt + 10K CCD.
858 Tebbutt Observatory, Edgewood.  Observer F. B. Zoltowski.  0.51-m f/8.1
    Schmidt-Cassegrain + CCD.
900 Moriyama.  Observer Y. Ikari.  0.26-m f/7.0 reflector + CCD.
H21 Astronomical Research Observatory, Westfield.  Observer R. Holmes.
    Measurers T. Linder, R. Holmes, L. Horn.  0.81-m f/4.0 astrograph + CCD.
I52 Steward Observatory, Mt. Lemmon Station.  Observer D. Rankin.  Measurers
    E. C. Beshore, D. Fay, J. B. Fazekas, D. C. Fuls, A. R. Gibbs, A. D.
    Grauer, H. Groeller, J. K. Hogan, R. A. Kowalski, S. M. Larson, G. J.
    Leonard, D. Rankin, R. L. Seaman, F. C. Shelly, K. W. Wierzchos.  1.0-m
    prime focus + CCD.
L04 ROASTERR-1 Observatory, Cluj-Napoca.  Observer L. Hudin.  0.3-m f/5
    reflector + CCD.
Orbital elements:
2023 VE1                                                 Earth MOID = 0.0003 AU
Epoch 2023 Sept. 13.0 TT = JDT 2460200.5                Bell                    
M 351.67653              (2000.0)            P               Q                  
n   0.80917662     Peri.  313.83610     +0.99465279     +0.10277750             
a   1.1405312      Node    40.26793     -0.08968750     +0.90825160             
e   0.1709392      Incl.    0.89795     -0.05120520     +0.40560550             
P   1.22           H   30.14          G   0.15           U   6                  
Residuals in seconds of arc
231104 703  0.2-  0.9-    231104 I52  0.1+  0.4+    231104 L04  0.5+  0.6-
231104 703 (1.1+  4.2-)   231104 291  0.3+  0.5+    231105 H21  0.1+  0.1+
231104 703  0.3-  0.0     231104 291  0.5+  0.1+    231105 H21  0.1+  0.1+
231104 I52  0.2-  0.6+    231104 291  0.4+  0.5+    231105 H21  0.2+  0.0
231104 I52  0.1-  0.6+    231104 691  0.0   0.1-    231105 858  0.2-  0.2-
231104 I52  0.1-  0.8+    231104 691  0.3+  0.2-    231105 H21  0.3-  0.1+
231104 I52  0.1-  0.7+    231104 691  0.2+  0.1+    231105 858  0.3-  0.2-
231104 I52  0.0   0.3+    231104 900  0.4+  0.7-    231105 H21  0.1-  0.1-
231104 I52  0.1+  0.3+    231104 900  0.4+  0.6-    231105 858  0.3-  0.3-
231104 I52  0.0   0.5+    231104 L04  0.3-  0.7-
Ephemeris:
2023 VE1                 a,e,i = 1.14, 0.17, 1                   q = 0.9456
Date    TT    R. A. (2000) Decl.     Delta      r    Elong.  Phase     V
2023 10 06    15 42 46.5 -25 41 56   0.07614 0.9501    47.4   129.2    30.1
...
2023 10 21    15 55 23.8 -26 27 53   0.03607 0.9667    35.7   143.1    30.1
...
2023 10 29    16 00 15.8 -26 09 37   0.01554 0.9799    28.8   150.8    29.6
...
2023 11 04    19 56 51.8 +44 24 37   0.0002440.9920    94.1    85.9    15.1
2023 11 05    05 26 47.3 -04 00 29   0.0026950.9936   134.0    45.9    19.0
2023 11 06    05 34 26.2 -06 53 18   0.0052620.9950   131.7    48.1    20.5
...
2023 11 12    05 39 23.3 -09 03 13   0.02037 1.0042   133.8    45.4    23.4
...
2023 11 20    05 37 27.6 -08 55 22   0.04060 1.0194   139.3    39.2    24.8
...
2023 12 05    05 30 42.3 -07 01 29   0.08056 1.0551   148.5    29.2    26.1
M. P. C. Staff               (C) Copyright 2023 MPC           M.P.E.C. 2023-V49
    
    
More information about the Iaude
mailing list